Regional Weather Roundup
Issued by NWS

Home | Current Version | Previous Version | Graphics & Text | Print | Product List | Glossary On
Versions: 1 2 3 4 5 6 7 8 9 10 11 12 13 14 15 16 17 18 19 20 21 22 23 24 25 26 27
000
ASUS45 KTFX 261410
RWRMT
MONTANA REGIONAL WEATHER ROUNDUP
NATIONAL WEATHER SERVICE GREAT FALLS MT
700 AM MST SUN FEB 26 2017

NOTE: "FAIR" INDICATES FEW OR NO CLOUDS BELOW 12000 FEET WITH NO
SIGNIFICANT WEATHER AND/OR OBSTRUCTIONS TO VISIBILITY.

MTZ001>007-043-261500-
WEST OF THE DIVIDE

CITY           SKY/WX    TMP DP  RH WIND       PRES   REMARKS
KALISPELL      LGT SNOW  25  23  92 SE9       29.71F FOG     WCI  15
MISSOULA       CLOUDY    27  22  81 E6        29.73F WCI  20
BUTTE          CLOUDY    21   8  57 VRB3      29.67F
MULLAN PASS    LGT SNOW  15  14  95 CALM      29.55F VSB 3/4
ANACONDA         N/A     21  10  63 S10G17    29.68F WCI  10
DEER LODGE       N/A     25  12  58 S5        29.71S
EUREKA           N/A     25  23  93 E3        29.72F VSB 1
HAMILTON         N/A     28  16  59 S9        29.72S WCI  20
LIBBY            N/A     25  23  93 CALM      29.70F
PLAINS           N/A     26  20  78 CALM      29.75F
RONAN            N/A     25  22  88 CALM      29.77F
$$

MTZ008-052>055-261500-
SOUTHWEST MONTANA

CITY           SKY/WX    TMP DP  RH WIND       PRES   REMARKS
BOZEMAN        CLOUDY    22  17  81 E5        29.74F
DILLON         CLOUDY    19   7  59 SW10      29.70F WCI   7
W YELLOWSTONE  LGT SNOW  10   7  85 SW5       29.75F
ENNIS          CLOUDY    19   7  58 S13       29.77S WCI   7
THREE FORKS      N/A     25  25 100 S17       29.75F WCI  12
TWIN BRIDGES     N/A     22  11  62 E13       29.75F WCI  10
$$

MTZ009-010-012-014-046-048-049-054-261500-
EAST SLOPES AND CENTRAL MONTANA

CITY           SKY/WX    TMP DP  RH WIND       PRES   REMARKS
CUT BANK       LGT SNOW  18  15  88 N18       29.71R FOG     WCI   2
GREAT FALLS    LGT SNOW  23  20  88 N5        29.72S FOG
MALMSTROM AFB  LGT SNOW  23  23 100 NW6       29.73S WCI  16
HELENA         CLOUDY    24  22  91 NE3       29.72F
AUGUSTA        CLOUDY    20  19  93 E10       29.66S WCI   9
BOWMANS CRNR   CLOUDY    22  15  74 S10       29.65F WCI  11
CHOTEAU          N/A     23  21  93 E7        29.71S FOG     WCI  15
CONRAD           N/A     22  21  96 NW2       29.76R
POWER          LGT SNOW  21  19  93 NE6       29.70S WCI  13
RAYNESFORD     LGT SNOW  22  20  91 W10       29.70S WCI  12
ULM            FLURRIES  24  20  86 MISG      29.72S
$$

MTZ011-013-016-021-045-047-050-051-261500-
NORTH CENTRAL MONTANA

CITY           SKY/WX    TMP DP  RH WIND       PRES   REMARKS
HAVRE          CLOUDY    24  20  84 W7        29.74R WCI  16
LEWISTOWN      FLURRIES  21  18  88 NW16      29.67S WCI   7
N BAR RANCH    LGT SNOW  21  16  79 W15       29.68S WCI   8
CHINOOK          N/A     23  18  80 W6        29.74S WCI  16
DENTON         FLURRIES  23  20  89 NW14G23   29.68R WCI  11
FORT BENTON      N/A     27  19  74 MISG      29.76R
GEYSER         LGT SNOW  22  20  91 W10       29.68S WCI  11
GRASS RANGE    LGT SNOW  23  21  89 W14       29.65S WCI  11
JUDITH GAP     MOCLDY    20   8  59 N3        29.65F
ROY            FLURRIES  23  20  89 MISG      29.67R
STANFORD       MOCLDY    21  19  91 NW15      29.67R WCI   7
WINIFRED       CLOUDY    23  20  91 NW16G25   29.68R WCI   9
$$

MTZ017>020-022>027-061-062-261500-
NORTHEAST MONTANA

CITY           SKY/WX    TMP DP  RH WIND       PRES   REMARKS
GLASGOW        LGT SNOW  16  13  88 NE6       29.68R FOG     WCI   7
JORDAN           N/A     27  22  81 W14       29.66S WCI  16
SIDNEY         LGT SNOW  18  16  93 CALM      29.70S FOG
WOLF POINT     LGT SNOW  13  10  88 CALM      29.70S FOG
PLENTYWOOD       N/A     12   9  85 CALM      29.70R
POPLAR           N/A     14  10  85 CALM      29.71R
SCOBEY           N/A     13   5  70 CALM      29.67S
$$

MTZ028>42-056>058-261500-
SOUTHCENTRAL AND SOUTHEAST MONTANA

CITY           SKY/WX    TMP DP  RH WIND       PRES   REMARKS
BAKER          CLOUDY    24  15  68 W17       29.67R WCI  11
BILLINGS       PTCLDY    22  11  62 SW15      29.72S WCI   9
LIVINGSTON     CLOUDY    21   6  52 SW30G37   29.69F WCI   3
MILES CITY     PTCLDY    27  19  72 W10       29.70S WCI  17
BIG TIMBER     CLOUDY    21   9  58 W23       29.73S WCI   5
EKALAKA          N/A     20   9  62 SW10      29.67S WCI   9
FORSYTH          N/A     27  16  63 SW7       29.72S WCI  19
HARLOWTON      MOCLDY    22  16  76 NW20      29.67S WCI   7
LAUREL           N/A     19   7  60 S8        29.72S WCI   9
$$

REGIONAL REPORTS...DAKOTAS

CITY           SKY/WX    TMP DP  RH WIND       PRES   REMARKS
WILLISTON      CLOUDY    11   8  88 N5        29.71S FOG
MINOT          CLOUDY     1  -4  79 SW12      29.73R WCI -16
DICKINSON      CLOUDY    17  15  92 S8        29.65S WCI   7
BEACH            N/A    N/A N/A N/A MISG        N/A
CROSBY           N/A     12  12 100 SW10      29.73R WCI  -1
TIOGA          LGT SNOW   3   3 100 CALM      29.71R
WATFORD CITY   CLOUDY    14  12  92 E7        29.70S FOG     WCI   4
BISMARCK       CLOUDY    13   9  84 E5        29.78S
GRAND FORKS    CLEAR      2  -5  72 W8        29.81R WCI -12
FARGO          MOCLDY    10   6  84 MISG      29.81R
BUFFALO SD       N/A     18  11  74 W8        29.62R WCI   8
RAPID CITY     CLEAR     18   9  68 W6        29.75R WCI  10
$$

REGIONAL REPORTS...WYOMING/IDAHO/WASHINGTON

CITY           SKY/WX    TMP DP  RH WIND       PRES   REMARKS
GILLETTE       CLEAR     17   5  59 SW13      29.71S WCI   4
SHERIDAN       CLOUDY    18   7  62 SW9       29.72S WCI   7
BUFFALO WY     CLOUDY    17   0  47 W5        29.69S
CODY           CLOUDY    22   2  42 SW17G24   29.71S WCI   8
YELLOWSTONE LA   N/A      5   3  91 CALM      29.72S
IDAHO FALLS    CLOUDY     9   6  88 CALM      29.87F
SALMON         PTCLDY    25  10  54 S13       29.75F WCI  13
BOISE          MOCLDY    30  17  58 SE16      29.84F WCI  19
SPOKANE        LGT SNOW  28  26  92 S5        29.73S FOG
$$

REGIONAL REPORTS...ALBERTA

CITY           SKY/WX    TMP DP  RH WIND       PRES   REMARKS
EDMONTON       CLOUDY    10   3  72 N16G29    29.86R WCI  -7
CALGARY        CLOUDY    14   7  73 N9        29.79R WCI   2
LETHBRIDGE     LGT SNOW  18  16  93 N13       29.79R FOG     WCI   4
MEDICINE HAT   FLURRIES  18  14  86 NW8       29.79R WCI   7
WATERTON GATE    N/A     16  12  86 NE10        N/A  WCI   3
CARDSTON         N/A     16  14  93 N6          N/A  WCI   7
MILK RIVER       N/A     18  16  93 N12         N/A  WCI   5
ONEFOUR          N/A     18  16  93 NW14        N/A  WCI   4
$$

REGIONAL REPORTS...SASKATCHEWAN

CITY           SKY/WX    TMP DP  RH WIND       PRES   REMARKS
SWIFT CURRENT  LGT SNOW  16  16 100 NW14      29.66R WCI   1
REGINA         FLURRIES  16  12  86 W10       29.68R WCI   3
SASKATOON      CLOUDY    12   9  85 W7        29.72R WCI   2
CYPRESS HILLS    N/A     10   7  85 N12G21      N/A  WCI  -4
VAL MARIE        N/A     16  12  86 CALM        N/A
ASSINIBOIA       N/A     14   7  73 N15G21      N/A  WCI  -1
$$




USA.gov is the U.S. government's official web portal to all federal, state and local government web resources and services.